#timestamp,LO_Frequency,Hit,StdDev 
1501088455.6,286046990.1,P,0.0
1501088475.4,286046990.3,P,0.0
1501088495.3,286046991.2,P,0.0
1501088515.1,286046989.6,P,0.0
1501088535.9,286046987.3,P,0.0
1501088555.7,286046987.3,P,0.0
1501088575.5,286046989.0,P,0.0
1501088595.4,286046989.7,P,0.0
1501088615.2,286046989.5,P,0.0
1501088635.1,286046987.1,P,0.0
1501088636.0,286046987.1,P,0.0
1501088655.8,286046986.9,P,0.0
1501088675.7,286046989.7,P,0.0
1501088695.5,286046989.5,P,0.0
1501088715.3,286046989.5,P,0.0
1501088735.2,286046986.9,P,0.0
1501088755.0,286046987.6,P,0.0
1501088755.9,286046987.6,P,0.0
1501088775.8,286046987.5,P,0.0
1501088795.6,286046989.5,P,0.0
1501088815.4,286046987.4,P,0.0
1501088835.3,286046989.7,P,0.0
1501088855.1,286046987.4,P,0.0
1501088875.9,286046987.8,P,0.0
1501088895.7,286046987.8,P,0.0
1501088915.5,286046988.1,P,0.0
1501088935.4,286046987.9,P,0.0
1501088955.2,286046987.9,P,0.0
1501088975.0,286046987.9,P,0.0
1501088976.0,286046987.9,P,0.0
1501088995.8,286046986.9,P,0.0
1501089015.6,286046987.0,P,0.0
1501089115.1,286046991.2,P,0.0
1501089135.9,286046989.0,P,1.0
1501089155.7,286046988.9,P,1.1
1501089175.5,286046991.4,P,1.1
1501089195.4,286046991.2,P,1.1
1501089215.2,286046991.3,P,1.0
1501089235.1,286046993.1,P,1.3
1501089236.0,286046993.1,P,1.4
1501089255.8,286046990.1,P,1.4
1501089275.6,286046992.5,P,0.7
1501089295.5,286047002.7,P,5.2
1501089315.3,286046999.9,N,4.9
1501089335.2,286046999.8,N,4.6
1501089355.9,286047002.3,N,4.6
1501089375.7,286047000.0,N,4.3
1501089395.6,286046999.8,N,4.0
1501089445.4,286047001.6,Y,nan
1501089455.3,286047000.2,N,nan
1501089475.2,286047000.7,N,nan
1501089495.0,286047000.6,N,nan
1501089495.9,286047000.6,N,nan
1501089515.8,286046999.7,N,nan
1501089535.6,286046999.7,N,nan
1501089555.4,286047002.5,N,nan
1501089575.3,286047002.3,N,nan
1501089595.1,286047002.2,N,nan
1501089615.9,286047002.2,N,nan
1501089635.7,286047002.0,N,nan
1501089655.5,286047001.7,N,nan
1501089675.4,286047004.1,N,nan
1501089695.2,286047004.1,N,nan
1501089715.1,286047003.4,N,nan
1501089716.0,286047003.4,N,nan
1501089735.8,286047003.6,N,nan
1501089755.6,286047001.5,N,nan
1501089775.5,286047002.0,N,nan
1501089795.3,286047001.6,N,nan
1501089815.2,286047001.3,N,nan
1501089835.9,286047003.3,N,nan
1501089855.7,286047003.2,N,nan
1501089875.6,286047003.8,N,nan
1501089895.4,286047005.5,N,nan
1501089915.2,286047005.4,N,nan
1501089935.1,286047005.8,N,nan
1501089936.0,286047005.8,N,nan
1501089955.8,286047011.9,N,nan
1501089975.7,286047003.3,N,2.4
1501089995.5,286047002.9,N,2.3
1501090015.4,286047005.4,N,2.3
1501090035.2,286047005.4,N,2.3
1501090055.0,286047005.9,N,2.3
1501090055.9,286047005.9,N,2.2
1501090075.8,286047005.5,N,2.1
1501090095.6,286047005.3,N,2.1
1501090115.4,286047004.9,N,2.1
1501090135.3,286047005.8,N,2.1
1501090155.1,286047005.5,N,2.1
1501090175.9,286047005.5,N,2.0
1501090195.7,286047005.4,N,2.0
1501090215.5,286047005.8,N,2.0
1501090235.4,286047005.7,N,2.0
1501090255.2,286047005.8,N,2.0
1501090275.1,286047005.5,N,2.0
1501090276.0,286047005.5,N,2.0
1501090295.8,286047005.5,N,1.9
1501090315.6,286047005.6,N,1.8
1501090335.5,286047005.9,P,0.4
1501090355.3,286047000.1,N,2.6
1501090375.2,286047002.8,N,2.3
1501090395.0,286047002.7,N,2.0
1501090395.9,286047002.7,N,1.9
1501090415.7,286047002.6,N,1.8
1501090435.6,286047000.2,N,1.9
1501090455.4,286046998.1,N,2.3
1501090475.3,286047000.4,N,2.3
1501090495.1,286047001.2,N,2.2
1501090515.8,286047001.2,N,2.1
1501090535.7,286046998.2,N,2.2
1501090555.5,286047000.7,N,2.2
1501090575.4,286047001.0,N,2.1
1501090595.2,286047001.1,N,2.0
1501090615.1,286047000.9,N,2.0
1501090616.0,286047000.9,N,1.9
1501090635.8,286047000.7,N,1.9
1501090655.6,286047000.3,N,1.9
1501090675.5,286047002.4,N,1.8
1501090695.3,286047002.3,N,1.8
1501090715.2,286047002.5,N,1.8
1501090735.9,286047002.4,N,1.7
1501090755.7,286047002.8,N,1.7
1501090775.6,286047002.4,N,1.7
1501090795.4,286047002.6,N,1.7
1501090815.2,286047002.6,N,1.7
1501090835.1,286047002.1,N,1.6
1501090836.0,286047002.1,N,1.6
1501090855.8,286047002.7,N,1.5
1501090875.7,286047002.7,N,1.3
1501090895.5,286047000.3,N,1.3
1501090915.3,286047001.0,N,1.3
1501090935.2,286047000.5,N,1.2
1501090955.0,286047000.2,N,1.2
1501090955.9,286047000.2,N,1.2
1501090975.8,286047002.6,N,1.2
1501090995.6,286047001.5,N,1.1
1501091015.4,286047001.4,N,1.1
1501091035.3,286047001.9,N,1.1
1501091055.1,286047003.5,P,1.0
1501091075.9,286047003.8,P,1.0
1501091095.7,286047001.9,N,1.0
1501091115.5,286047002.8,N,0.9
1501091135.4,286047000.6,N,1.1
1501091155.2,286047002.7,N,1.1
1501091175.0,286047001.5,N,1.0
1501091175.9,286047001.5,N,1.0
1501091195.8,286047000.2,N,1.1
1501091215.6,286047000.1,N,1.2
1501091235.5,286047002.3,N,1.2
1501091255.3,286047002.5,N,1.1
1501091275.1,286047002.1,N,1.1
1501091295.9,286047002.5,N,1.1
1501091315.7,286047001.3,N,1.0
1501091335.6,286047004.4,P,1.2
1501091355.4,286047000.3,N,1.7
1501091375.2,286047000.1,N,1.7
1501091395.1,286047000.9,N,1.6
1501091396.0,286047000.9,N,1.5
1501091415.8,286047000.8,N,1.4
1501091435.7,286047001.2,N,1.3
1501091455.5,286047001.0,N,1.2
1501091475.3,286047000.8,N,1.2
1501091495.2,286047000.7,N,1.1
1501091515.0,286046998.7,N,1.3
1501091515.9,286046998.7,N,1.4
1501091535.7,286046998.3,N,1.5
1501091555.6,286046998.2,N,1.5
1501091575.4,286047001.1,N,1.5
1501091595.3,286047001.1,N,1.5
1501091615.1,286047002.6,N,1.5
1501091616.0,286047002.6,N,1.5
1501091635.8,286047000.0,N,1.5
1501091655.7,286046998.5,N,1.5
1501091675.5,286047000.5,N,1.5
1501091695.4,286047001.0,N,1.5
1501091715.2,286047000.3,N,1.4
1501091735.0,286047000.0,N,1.4
1501091735.9,286047000.0,N,1.4
1501091755.8,286047000.9,N,1.4
1501091775.6,286047000.4,N,1.3
1501091795.4,286047002.5,N,1.4
1501091815.3,286046998.6,N,1.4
1501091835.1,286046998.9,N,1.4
1501091855.9,286046998.3,N,1.2
1501091875.7,286047000.6,N,1.2
1501091895.5,286046998.1,N,1.3
1501091915.4,286047001.1,N,1.3
1501091935.2,286047000.6,N,1.3
1501091955.1,286047000.5,N,1.3
1501091956.0,286047000.5,N,1.3
1501091975.8,286046999.7,N,1.3
1501091995.6,286047002.5,N,1.3
